TimeCST,TemperatureF,Dew PointF,Humidity,Sea Level PressureIn,VisibilityMPH,Wind Direction,Wind SpeedMPH,Gust SpeedMPH,PrecipitationIn,Events,Conditions,WindDirDegrees,DateUTC
12:53 AM,30.0,24.1,79,30.03,10.0,South,11.5,-,N/A,,Partly Cloudy,170,2012-11-25 06:53:00
1:53 AM,30.9,24.1,76,29.99,10.0,South,12.7,-,N/A,,Clear,170,2012-11-25 07:53:00
2:53 AM,30.9,23.0,72,29.99,10.0,South,10.4,-,N/A,,Clear,190,2012-11-25 08:53:00
3:53 AM,30.9,24.1,76,29.95,10.0,South,11.5,-,N/A,,Partly Cloudy,190,2012-11-25 09:53:00
4:53 AM,32.0,24.1,73,29.94,10.0,SSW,10.4,-,N/A,,Clear,210,2012-11-25 10:53:00
5:53 AM,33.1,25.0,72,29.93,10.0,SSW,8.1,-,N/A,,Scattered Clouds,210,2012-11-25 11:53:00
6:53 AM,33.1,26.1,75,29.94,10.0,SSW,6.9,-,N/A,,Clear,210,2012-11-25 12:53:00
7:53 AM,35.1,26.1,70,29.94,10.0,SSW,9.2,-,N/A,,Clear,210,2012-11-25 13:53:00
8:53 AM,37.0,26.1,65,29.95,10.0,SW,10.4,-,N/A,,Clear,220,2012-11-25 14:53:00
9:53 AM,42.1,27.0,55,29.94,10.0,WSW,16.1,-,N/A,,Clear,240,2012-11-25 15:53:00
10:53 AM,46.0,27.0,47,29.93,10.0,West,12.7,-,N/A,,Clear,270,2012-11-25 16:53:00
11:53 AM,46.0,28.0,50,29.92,10.0,WSW,11.5,-,N/A,,Clear,250,2012-11-25 17:53:00
12:53 PM,46.0,28.0,50,29.92,10.0,West,11.5,-,N/A,,Partly Cloudy,270,2012-11-25 18:53:00
1:53 PM,46.0,28.9,51,29.93,10.0,West,10.4,-,N/A,,Clear,270,2012-11-25 19:53:00
2:53 PM,46.0,28.9,51,29.94,10.0,WSW,9.2,-,N/A,,Scattered Clouds,250,2012-11-25 20:53:00
3:53 PM,45.0,30.0,56,29.95,10.0,West,6.9,-,N/A,,Mostly Cloudy,260,2012-11-25 21:53:00
4:53 PM,42.1,30.9,65,29.96,10.0,West,5.8,-,N/A,,Mostly Cloudy,260,2012-11-25 22:53:00
5:53 PM,42.1,30.9,65,30.00,10.0,West,4.6,-,N/A,,Mostly Cloudy,280,2012-11-25 23:53:00
6:53 PM,39.9,30.9,70,30.00,10.0,SW,4.6,-,N/A,,Overcast,230,2012-11-26 00:53:00
7:53 PM,39.9,30.9,70,30.03,10.0,NW,5.8,-,N/A,,Partly Cloudy,320,2012-11-26 01:53:00
8:53 PM,39.0,30.9,73,30.05,10.0,NW,3.5,-,N/A,,Mostly Cloudy,320,2012-11-26 02:53:00
9:53 PM,37.9,30.0,73,30.07,10.0,NNW,4.6,-,N/A,,Scattered Clouds,330,2012-11-26 03:53:00
10:53 PM,37.0,28.0,70,30.08,10.0,Calm,Calm,-,N/A,,Scattered Clouds,0,2012-11-26 04:53:00
11:53 PM,30.9,25.0,79,30.10,10.0,NW,6.9,-,N/A,,Clear,320,2012-11-26 05:53:00